H1 CPF 2 NER 2025 11 10 9 314 01 glonass142 H2 2001801 9142 45358 2025 11 10 0 0 0 2025 11 13 23 45 0 900 1 1 0 0 0 1 H9 10 0 60989 0.00000 0 -9503755.968 -12289344.001 -20214978.044 10 0 60989 900.00000 0 -9627411.820 -14679855.705 -18492618.774 10 0 60989 1800.00000 0 -9902909.963 -16821478.448 -16410674.889 10 0 60989 2700.00000 0 -10290158.046 -18664519.434 -14009741.324 10 0 60989 3600.00000 0 -10741523.554 -20169610.816 -11336586.829 10 0 60989 4500.00000 0 -11204008.723 -21309147.589 -8443235.692 10 0 60989 5400.00000 0 -11621662.491 -22068243.640 -5385949.264 10 0 60989 6300.00000 0 -11938126.788 -22445167.719 -2224127.647 10 0 60989 7200.00000 0 -12099209.060 -22451242.923 980846.606 10 0 60989 8100.00000 0 -12055372.124 -22110215.877 4166799.951 10 0 60989 9000.00000 0 -11764036.209 -21457123.796 7271971.211 10 0 60989 9900.00000 0 -11191596.241 -20536708.547 10236203.478 10 0 60989 10800.00000 0 -10315069.607 -19401445.413 13002101.802 10 0 60989 11700.00000 0 -9123305.260 -18109269.960 15516134.855 10 0 60989 12600.00000 0 -7617703.458 -16721098.586 17729660.062 10 0 60989 13500.00000 0 -5812415.743 -15298246.383 19599853.438 10 0 60989 14400.00000 0 -3734016.256 -13899849.766 21090527.355 10 0 60989 15300.00000 0 -1420657.198 -12580400.741 22172821.592 10 0 60989 16200.00000 0 1079257.714 -11387494.763 22825755.394 10 0 60989 17100.00000 0 3708828.278 -10359885.085 23036630.739 10 0 60989 18000.00000 0 6404770.326 -9525923.886 22801279.472 10 0 60989 18900.00000 0 9099800.124 -8902454.491 22124149.629 10 0 60989 19800.00000 0 11725193.782 -8494200.528 21018228.891 10 0 60989 20700.00000 0 14213417.374 -8293677.560 19504805.839 10 0 60989 21600.00000 0 16500720.142 -8281631.166 17613072.459 10 0 60989 22500.00000 0 18529584.244 -8427983.737 15379574.157 10 0 60989 23400.00000 0 20250929.747 -8693251.008 12847516.413 10 0 60989 24300.00000 0 21625983.199 -9030369.584 10065940.050 10 0 60989 25200.00000 0 22627731.547 -9386859.133 7088779.813 10 0 60989 26100.00000 0 23241899.948 -9707228.416 3973823.630 10 0 60989 27000.00000 0 23467411.780 -9935523.509 781592.229 10 0 60989 27900.00000 0 23316310.680 -10017909.965 -2425839.176 10 0 60989 28800.00000 0 22813147.156 -9905178.660 -5586053.814 10 0 60989 29700.00000 0 21993855.111 -9555067.840 -8637516.550 10 0 60989 30600.00000 0 20904165.372 -8934301.317 -11520782.498 10 0 60989 31500.00000 0 19597623.258 -8020254.580 -14179666.301 10 0 60989 32400.00000 0 18133294.206 -6802176.346 -16562348.101 10 0 60989 33300.00000 0 16573254.895 -5281911.954 -18622393.537 10 0 60989 34200.00000 0 14979976.403 -3474096.296 -20319666.949 10 0 60989 35100.00000 0 13413710.518 -1405806.638 -21621119.348 10 0 60989 36000.00000 0 11929989.917 884311.313 -22501435.413 10 0 60989 36900.00000 0 10577347.903 3347408.274 -22943526.793 10 0 60989 37800.00000 0 9395353.718 5926230.534 -22938862.263 10 0 60989 38700.00000 0 8413045.771 8557278.467 -22487628.625 10 0 60989 39600.00000 0 7647827.985 11173234.257 -21598719.699 10 0 60989 40500.00000 0 7104874.602 13705557.497 -20289554.168 10 0 60989 41400.00000 0 6777067.082 16087140.419 -18585726.450 10 0 60989 42300.00000 0 6645464.151 18254911.998 -16520497.991 10 0 60989 43200.00000 0 6680283.457 20152282.620 -14134139.542 10 0 60989 44100.00000 0 6842351.687 21731327.803 -11473137.821 10 0 60989 45000.00000 0 7084960.323 22954620.546 -8589282.664 10 0 60989 45900.00000 0 7356047.223 23796636.846 -5538653.003 10 0 60989 46800.00000 0 7600610.681 24244676.978 -2380521.964 10 0 60989 47700.00000 0 7763253.054 24299265.497 823797.131 10 0 60989 48600.00000 0 7790745.918 23974014.907 4012141.073 10 0 60989 49500.00000 0 7634508.131 23294960.331 7122700.108 10 0 60989 50400.00000 0 7252892.143 22299394.556 10095210.989 10 0 60989 51300.00000 0 6613182.308 21034253.487 12872116.899 10 0 60989 52200.00000 0 5693221.187 19554120.455 15399672.400 10 0 60989 53100.00000 0 4482595.591 17918933.346 17628972.796 10 0 60989 54000.00000 0 2983332.510 16191490.339 19516889.073 10 0 60989 54900.00000 0 1210075.366 14434858.012 21026891.527 10 0 60989 55800.00000 0 -810267.483 12709789.125 22129747.300 10 0 60989 56700.00000 0 -3039388.485 11072256.690 22804079.462 10 0 60989 57600.00000 0 -5428926.368 9571205.840 23036777.704 10 0 60989 58500.00000 0 -7922237.165 8246615.997 22823253.177 10 0 60989 59400.00000 0 -10456519.261 7127953.001 22167532.703 10 0 60989 60300.00000 0 -12965206.304 6233074.914 21082190.151 10 0 60989 61200.00000 0 -15380530.557 5567636.699 19588115.543 10 0 60989 62100.00000 0 -17636151.954 5125018.519 17714125.201 10 0 60989 63000.00000 0 -19669744.874 4886780.820 15496419.047 10 0 60989 63900.00000 0 -21425435.790 4823627.605 12977894.067 10 0 60989 64800.00000 0 -22855990.481 4896837.950 10207325.753 10 0 60989 65700.00000 0 -23924659.325 5060106.088 7238432.073 10 0 60989 66600.00000 0 -24606602.833 5261712.824 4128837.212 10 0 60989 67500.00000 0 -24889836.794 5446936.656 938954.650 10 0 60989 68400.00000 0 -24775656.311 5560602.326 -2269188.833 10 0 60989 69300.00000 0 -24278519.846 5549658.131 -5433164.950 10 0 60989 70200.00000 0 -23425397.275 5365671.661 -8491367.181 10 0 60989 71100.00000 0 -22254608.791 4967136.679 -11384220.706 10 0 60989 72000.00000 0 -20814203.284 4321491.593 -14055354.191 10 0 60989 72900.00000 0 -19159944.607 3406762.142 -16452709.389 10 0 60989 73800.00000 0 -17352990.907 2212756.868 -18529565.843 10 0 60989 74700.00000 0 -15457365.310 741763.008 -20245459.740 10 0 60989 75600.00000 0 -13537325.088 -991288.151 -21566978.375 10 0 60989 76500.00000 0 -11654740.507 -2959194.787 -22468414.354 10 0 60989 77400.00000 0 -9866593.981 -5123382.264 -22932266.657 10 0 60989 78300.00000 0 -8222704.704 -7435288.082 -22949578.979 10 0 60989 79200.00000 0 -6763774.035 -9838176.481 -22520109.027 10 0 60989 80100.00000 0 -5519833.077 -12269306.891 -21652325.994 10 0 60989 81000.00000 0 -4509156.537 -14662365.608 -20363236.790 10 0 60989 81900.00000 0 -3737687.050 -16950059.014 -18678044.999 10 0 60989 82800.00000 0 -3198992.431 -19066759.970 -16629649.853 10 0 60989 83700.00000 0 -2874755.697 -20951096.866 -14257995.582 10 0 60989 84600.00000 0 -2735775.213 -22548377.422 -11609284.438 10 0 60989 85500.00000 0 -2743430.808 -23812746.333 -8735069.321 10 0 60990 0.00000 0 -2851552.198 -24708987.196 -5691244.555 10 0 60990 900.00000 0 -3008609.274 -25213894.706 -2536953.330 10 0 60990 1800.00000 0 -3160130.318 -25317159.735 666562.331 10 0 60990 2700.00000 0 -3251245.254 -25021733.157 3857151.786 10 0 60990 3600.00000 0 -3229245.785 -24343653.305 6972958.871 10 0 60990 4500.00000 0 -3046054.085 -23311346.140 9953616.073 10 0 60990 5400.00000 0 -2660495.909 -21964428.500 12741406.699 10 0 60990 6300.00000 0 -2040282.423 -20352065.335 15282373.084 10 0 60990 7200.00000 0 -1163617.570 -18530950.098 17527350.168 10 0 60990 8100.00000 0 -20363.464 -16562992.671 19432905.498 10 0 60990 9000.00000 0 1387285.197 -14512810.897 20962168.669 10 0 60990 9900.00000 0 3044646.443 -12445129.482 22085535.330 10 0 60990 10800.00000 0 4924923.387 -10422193.467 22781233.260 10 0 60990 11700.00000 0 6990089.402 -8501302.575 23035740.473 10 0 60990 12600.00000 0 9192250.865 -6732567.651 22844047.770 10 0 60990 13500.00000 0 11475432.670 -5156981.183 22209760.831 10 0 60990 14400.00000 0 13777714.330 -3804881.092 21145039.528 10 0 60990 15300.00000 0 16033629.825 -2694870.964 19670374.869 10 0 60990 16200.00000 0 18176733.239 -1833241.233 17814206.782 10 0 60990 17100.00000 0 20142224.896 -1213915.338 15612388.691 10 0 60990 18000.00000 0 21869529.562 -818923.235 13107507.760 10 0 60990 18900.00000 0 23304719.660 -619382.711 10348072.473 10 0 60990 19800.00000 0 24402682.163 -576947.629 7387581.997 10 0 60990 20700.00000 0 25128937.917 -645662.429 4283494.407 10 0 60990 21600.00000 0 25461036.149 -774144.717 1096113.245 10 0 60990 22500.00000 0 25389464.439 -908003.515 -2112586.069 10 0 60990 23400.00000 0 24918034.568 -992390.227 -5280166.810 10 0 60990 24300.00000 0 24063726.812 -974573.309 -8344954.191 10 0 60990 25200.00000 0 22855998.196 -806426.212 -11247246.505 10 0 60990 26100.00000 0 21335583.150 -446721.535 -13930489.311 10 0 60990 27000.00000 0 19552836.675 136867.611 -16342388.631 10 0 60990 27900.00000 0 17565689.787 966145.563 -18435940.302 10 0 60990 28800.00000 0 15437303.481 2051221.826 -20170354.478 10 0 60990 29700.00000 0 13233520.290 3389839.662 -21511856.587 10 0 60990 30600.00000 0 11020220.955 4967235.276 -22434348.733 10 0 60990 31500.00000 0 8860697.558 6756534.617 -22919918.511 10 0 60990 32400.00000 0 6813153.470 8719671.897 -22959185.483 10 0 60990 33300.00000 0 4928434.749 10808791.783 -22551478.855 10 0 60990 34200.00000 0 3248087.557 12968076.656 -21704843.381 10 0 60990 35100.00000 0 1802822.047 15135922.438 -20435873.935 10 0 60990 36000.00000 0 611445.727 17247371.807 -18769382.553 10 0 60990 36900.00000 0 -319690.650 19236702.783 -16737905.067 10 0 60990 37800.00000 0 -996713.442 21040064.275 -14381057.544 10 0 60990 38700.00000 0 -1437714.021 22598048.298 -11744755.678 10 0 60990 39600.00000 0 -1671728.010 23858091.320 -8880312.945 10 0 60990 40500.00000 0 -1737250.979 24776604.588 -5843435.668 10 0 60990 41400.00000 0 -1680355.152 25320744.813 -2693135.085 10 0 60990 42300.00000 0 -1552488.248 25469751.827 509421.907 10 0 60990 43200.00000 0 -1408048.683 25215798.175 3702100.646 10 0 60990 44100.00000 0 -1301840.457 24564316.138 6823001.942 10 0 60990 45000.00000 0 -1286515.660 23533789.580 9811657.320 10 0 60990 45900.00000 0 -1410112.749 22155020.318 12610193.339 10 0 60990 46800.00000 0 -1713794.283 20469900.469 15164443.005 10 0 60990 47700.00000 0 -2229879.171 18529742.495 17424983.517 10 0 60990 48600.00000 0 -2980251.983 16393236.740 19348081.312 10 0 60990 49500.00000 0 -3975216.013 14124121.191 20896527.306 10 0 60990 50400.00000 0 -5212838.356 11788659.773 22040347.333 10 0 60990 51300.00000 0 -6678814.934 9453032.927 22757375.211 10 0 60990 52200.00000 0 -8346862.044 7180747.559 23033678.210 10 0 60990 53100.00000 0 -10179619.452 5030172.479 22863827.284 10 0 60990 54000.00000 0 -12130029.001 3052300.202 22251006.992 10 0 60990 54900.00000 0 -14143133.277 1288826.747 21206962.707 10 0 60990 55800.00000 0 -16158221.335 -229371.801 19751785.382 10 0 60990 56700.00000 0 -18111234.000 -1483303.372 17913536.959 10 0 60990 57600.00000 0 -19937330.119 -2466420.692 15727722.234 10 0 60990 58500.00000 0 -21573507.884 -3184655.503 13236615.944 10 0 60990 59400.00000 0 -22961172.416 -3655924.674 10488456.575 10 0 60990 60300.00000 0 -24048542.349 -3909128.697 7536521.192 10 0 60990 61200.00000 0 -24792794.136 -3982684.442 4438098.275 10 0 60990 62100.00000 0 -25161853.220 -3922653.874 1253377.870 10 0 60990 63000.00000 0 -25135755.531 -3780547.837 -1955719.523 10 0 60990 63900.00000 0 -24707520.580 -3610898.229 -5126752.203 10 0 60990 64800.00000 0 -23883497.887 -3468702.087 -8197980.449 10 0 60990 65700.00000 0 -22683170.764 -3406847.022 -11109578.794 10 0 60990 66600.00000 0 -21138424.569 -3473628.500 -13804812.596 10 0 60990 67500.00000 0 -19292309.475 -3710465.810 -16231154.736 10 0 60990 68400.00000 0 -17197349.310 -4149915.116 -18341319.568 10 0 60990 69300.00000 0 -14913467.552 -4814065.413 -20094192.995 10 0 60990 70200.00000 0 -12505617.692 -5713386.677 -21455639.840 10 0 60990 71100.00000 0 -10041217.721 -6846080.245 -22399172.409 10 0 60990 72000.00000 0 -7587496.605 -8197959.825 -22906467.042 10 0 60990 72900.00000 0 -5208864.100 -9742868.946 -22967718.737 10 0 60990 73800.00000 0 -2964413.899 -11443617.779 -22581827.248 10 0 60990 74700.00000 0 -905664.284 -13253400.138 -21756411.495 10 0 60990 75600.00000 0 925370.036 -15117631.206 -20507652.538 10 0 60990 76500.00000 0 2497695.358 -16976128.722 -18859968.774 10 0 60990 77400.00000 0 3792383.747 -18765545.878 -16845530.299 10 0 60990 78300.00000 0 4803103.251 -20421953.689 -14503622.504 10 0 60990 79200.00000 0 5536113.528 -21883464.343 -11879871.880 10 0 60990 80100.00000 0 6009729.351 -23092785.456 -9025349.766 10 0 60990 81000.00000 0 6253276.896 -23999598.169 -5995572.028 10 0 60990 81900.00000 0 6305588.943 -24562659.672 -2849414.699 10 0 60990 82800.00000 0 6213104.404 -24751542.409 352032.834 10 0 60990 83700.00000 0 6027653.947 -24547937.697 3546654.416 10 0 60990 84600.00000 0 5804026.407 -23946469.887 6672510.245 10 0 60990 85500.00000 0 5597419.473 -22954987.788 9669033.128 10 0 60991 0.00000 0 5460882.626 -21594322.056 12478194.701 10 0 60991 900.00000 0 5442860.124 -19897518.530 15045621.009 10 0 60991 1800.00000 0 5584937.483 -17908581.810 17321632.877 10 0 60991 2700.00000 0 5919885.696 -15680779.111 19262197.005 10 0 60991 3600.00000 0 6470085.254 -13274576.415 20829766.714 10 0 60991 4500.00000 0 7246395.840 -10755291.414 21993998.835 10 0 60991 5400.00000 0 8247519.224 -8190559.775 22732333.724 10 0 60991 6300.00000 0 9459882.490 -5647718.506 23030428.134 10 0 60991 7200.00000 0 10858047.430 -3191213.475 22882433.121 10 0 60991 8100.00000 0 12405630.282 -880136.993 22291111.842 10 0 60991 9000.00000 0 14056695.092 1234003.876 21267794.667 10 0 60991 9900.00000 0 15757564.339 3109196.931 19832171.784 10 0 60991 10800.00000 0 17448973.112 4714434.024 18011926.241 10 0 60991 11700.00000 0 19068478.585 6030757.677 15842213.106 10 0 60991 12600.00000 0 20553025.418 7051801.806 13364993.363 10 0 60991 13500.00000 0 21841560.689 7783804.030 10628233.935 10 0 60991 14400.00000 0 22877589.155 8245088.900 7684987.970 10 0 60991 15300.00000 0 23611561.400 8465043.530 4592372.273 10 0 60991 16200.00000 0 24002993.817 8482628.584 1410461.071 10 0 60991 17100.00000 0 24022230.035 8344487.402 -1798882.577 10 0 60991 18000.00000 0 23651768.101 8102733.404 -4973214.649 10 0 60991 18900.00000 0 22887095.823 7812509.950 -8050733.182 10 0 60991 19800.00000 0 21736997.414 7529426.869 -10971491.611 10 0 60991 20700.00000 0 20223316.989 7306983.432 -13678577.624 10 0 60991 21600.00000 0 18380187.657 7194088.396 -16119233.323 10 0 60991 22500.00000 0 16252757.750 7232783.627 -18245893.746 10 0 60991 23400.00000 0 13895467.219 7456269.234 -20017122.507 10 0 60991 24300.00000 0 11369946.395 7887315.130 -21398425.610 10 0 60991 25200.00000 0 8742625.233 8537127.380 -22362927.167 10 0 60991 26100.00000 0 6082153.390 9404718.120 -22891893.670 10 0 60991 27000.00000 0 3456739.258 10476806.310 -22975096.744 10 0 60991 27900.00000 0 931519.186 11728253.858 -22611007.601 10 0 60991 28800.00000 0 -1433933.325 13123018.855 -21806819.884 10 0 60991 29700.00000 0 -3587855.007 14615585.723 -20578300.994 10 0 60991 30600.00000 0 -5488203.814 16152811.871 -18949475.398 10 0 60991 31500.00000 0 -7104154.947 17676112.857 -16952146.691 10 0 60991 32400.00000 0 -8417121.072 19123893.830 -14625268.348 10 0 60991 33300.00000 0 -9421256.036 20434124.741 -12014175.987 10 0 60991 34200.00000 0 -10123423.174 21546950.778 -9169696.735 10 0 60991 35100.00000 0 -10542631.918 22407228.235 -6147153.586 10 0 60991 36000.00000 0 -10708968.710 22966879.266 -3005284.657 10 0 60991 36900.00000 0 -10662069.378 23186966.778 194901.089 10 0 60991 37800.00000 0 -10449199.210 23039402.721 3391309.079 10 0 60991 38700.00000 0 -10123023.213 22508218.546 6521962.055 10 0 60991 39600.00000 0 -9739161.628 21590345.125 9526197.287 10 0 60991 40500.00000 0 -9353634.441 20295870.022 12345835.106 10 0 60991 41400.00000 0 -9020302.800 18647761.788 14926296.619 10 0 60991 42300.00000 0 -8788414.945 16681073.067 17217649.689 10 0 60991 43200.00000 0 -8700359.540 14441655.723 19175563.963 10 0 60991 44100.00000 0 -8789720.326 11984441.125 20762157.619 10 0 60991 45000.00000 0 -9079713.282 9371356.365 21946720.639 10 0 60991 45900.00000 0 -9582071.565 6668961.875 22706301.754 10 0 60991 46800.00000 0 -10296424.962 3945907.017 23026148.648 10 0 60991 47700.00000 0 -11210200.205 1270307.572 22899993.510 10 0 60991 48600.00000 0 -12299047.192 -1292847.899 22330178.636 10 0 60991 49500.00000 0 -13527774.473 -3684156.967 21327619.414 10 0 60991 50400.00000 0 -14851756.430 -5852026.987 19911604.746 10 0 60991 51300.00000 0 -16218754.968 -7754572.401 18109437.696 10 0 60991 52200.00000 0 -17571081.152 -9361107.657 15955921.962 10 0 60991 53100.00000 0 -18848007.733 -10653174.075 13492702.622 10 0 60991 54000.00000 0 -19988332.531 -11625057.944 10767472.421 10 0 60991 54900.00000 0 -20932985.701 -12283778.145 7833057.607 10 0 60991 55800.00000 0 -21627571.365 -12648543.546 4746400.042 10 0 60991 56700.00000 0 -22024736.143 -12749702.773 1567454.661 10 0 60991 57600.00000 0 -22086263.773 -12627230.409 -1641976.485 10 0 60991 58500.00000 0 -21784806.074 -12328813.599 -4819450.667 10 0 60991 59400.00000 0 -21105175.467 -11907620.260 -7903107.255 10 0 60991 60300.00000 0 -20045142.724 -11419843.972 -10832882.070 10 0 60991 61200.00000 0 -18615704.496 -10922130.454 -13551688.448 10 0 60991 62100.00000 0 -16840807.729 -10468995.783 -16006540.789 10 0 60991 63000.00000 0 -14756541.315 -10110347.005 -18149597.567 10 0 60991 63900.00000 0 -12409827.987 -9889211.436 -19939102.432 10 0 60991 64800.00000 0 -9856670.859 -9839771.945 -21340204.379 10 0 60991 65700.00000 0 -7160027.809 -9985792.359 -22325640.558 10 0 60991 66600.00000 0 -4387402.709 -10339500.286 -22876268.236 10 0 60991 67500.00000 0 -1608254.280 -10900975.021 -22981435.670 10 0 60991 68400.00000 0 1108669.168 -11658066.548 -22639184.975 10 0 60991 69300.00000 0 3697957.886 -12586848.983 -21856283.458 10 0 60991 70200.00000 0 6100022.436 -13652589.046 -20648083.370 10 0 60991 71100.00000 0 8263326.124 -14811188.321 -19038213.392 10 0 60991 72000.00000 0 10146275.934 -16011037.972 -17058108.452 10 0 60991 72900.00000 0 11718694.387 -17195207.238 -14746387.677 10 0 60991 73800.00000 0 12962812.532 -18303872.983 -12148093.142 10 0 60991 74700.00000 0 13873744.527 -19276887.499 -9313804.893 10 0 60991 75600.00000 0 14459426.149 -20056376.071 -6298650.013 10 0 60991 76500.00000 0 14740022.129 -20589254.785 -3161225.573 10 0 60991 77400.00000 0 14746829.427 -20829562.507 37543.068 10 0 60991 78300.00000 0 14520724.674 -20740509.121 3235586.050 10 0 60991 79200.00000 0 14110222.867 -20296154.139 6370891.659 10 0 60991 80100.00000 0 13569230.414 -19482645.564 9382704.427 10 0 60991 81000.00000 0 12954588.101 -18298967.400 12212695.658 10 0 60991 81900.00000 0 12323507.822 -16757164.765 14806084.212 10 0 60991 82800.00000 0 11731010.996 -14882037.363 17112686.551 10 0 60991 83700.00000 0 11227476.007 -12710313.961 19087876.705 10 0 60991 84600.00000 0 10856397.122 -10289341.860 20693438.754 10 0 60991 85500.00000 0 10652448.273 -7675345.102 21898296.491 10 0 60992 0.00000 0 10639932.245 -4931322.888 22679107.257 10 0 60992 900.00000 0 10831679.841 -2124672.475 23020709.760 10 0 60992 1800.00000 0 11228444.982 675362.882 22916416.867 10 0 60992 2700.00000 0 11818821.314 3400321.862 22368149.378 10 0 60992 3600.00000 0 12579684.563 5985118.155 21386406.836 10 0 60992 4500.00000 0 13477143.161 8370494.249 19990075.776 10 0 60992 5400.00000 0 14467958.663 10505235.244 18206078.024 10 0 60992 6300.00000 0 15501377.930 12348051.781 16068864.480 10 0 60992 7200.00000 0 16521301.614 13869054.311 13619762.723 10 0 60992 8100.00000 0 17468699.089 15050757.535 10906189.554 10 0 60992 9000.00000 0 18284169.125 15888572.983 7980742.370 10 0 60992 9900.00000 0 18910538.787 16390768.824 4900185.956 10 0 60992 10800.00000 0 19295390.817 16577898.256 1724353.672 10 0 60992 11700.00000 0 19393412.067 16481720.230 -1485015.856 10 0 60992 12600.00000 0 19168462.550 16143657.812 -4665483.663 10 0 60992 13500.00000 0 18595276.060 15612859.421 -7755132.920 10 0 60992 14400.00000 0 17660718.653 14943945.212 -10693784.213 10 0 60992 15300.00000 0 16364549.885 14194534.698 -13424178.770 10 0 60992 16200.00000 0 14719652.843 13422661.098 -15893105.360 10 0 60992 17100.00000 0 12751721.608 12684182.998 -18052447.764 10 0 60992 18000.00000 0 10498417.996 12030303.954 -19860131.364 10 0 60992 18900.00000 0 8008032.022 11505306.036 -21280949.689 10 0 60992 19800.00000 0 5337701.655 11144594.035 -22287254.314 10 0 60992 20700.00000 0 2551266.113 10973133.579 -22859494.522 10 0 60992 21600.00000 0 -283157.641 11004349.456 -22986596.267 10 0 60992 22500.00000 0 -3095774.002 11239530.644 -22666173.387 10 0 60992 23400.00000 0 -5817774.975 11667766.828 -21904567.368 10 0 60992 24300.00000 0 -8383962.544 12266418.577 -20716715.458 10 0 60992 25200.00000 0 -10735218.249 13002100.593 -19125850.276 10 0 60992 26100.00000 0 -12820717.617 13832135.767 -17163037.382 10 0 60992 27000.00000 0 -14599798.128 14706417.825 -14866560.431 10 0 60992 27900.00000 0 -16043404.106 15569603.204 -12281166.457 10 0 60992 28800.00000 0 -17135049.814 16363538.940 -9457186.596 10 0 60992 29700.00000 0 -17871262.411 17029823.567 -6449549.935 10 0 60992 30600.00000 0 -18261488.361 17512392.575 -3316710.188 10 0 60992 31500.00000 0 -18327469.350 17760019.153 -119506.626 10 0 60992 32400.00000 0 -18102116.028 17728624.751 3080018.237 10 0 60992 33300.00000 0 -17627928.776 17383302.226 6219820.983 10 0 60992 34200.00000 0 -16955033.464 16699966.637 9239056.246 10 0 60992 35100.00000 0 -16138915.928 15666564.568 12079249.200 10 0 60992 36000.00000 0 -15237951.110 14283791.404 14685419.367 10 0 60992 36900.00000 0 -14310830.915 12565286.590 17007134.659 10 0 60992 37800.00000 0 -13413998.595 10537298.533 18999476.228 10 0 60992 38700.00000 0 -12599196.768 8237832.657 20623896.607 10 0 60992 39600.00000 0 -11911231.082 5715317.296 21848955.706 10 0 60992 40500.00000 0 -11386042.366 3026841.749 22650921.579 10 0 60992 41400.00000 0 -11049167.179 236038.143 23014225.312 10 0 60992 42300.00000 0 -10914650.609 -2589306.737 22931761.867 10 0 60992 43200.00000 0 -10984456.541 -5379812.550 22405031.347 10 0 60992 44100.00000 0 -11248400.218 -8067135.214 21444117.768 10 0 60992 45000.00000 0 -11684606.443 -10586558.167 20067505.131 10 0 60992 45900.00000 0 -12260475.103 -12879439.107 18301733.356 10 0 60992 46800.00000 0 -12934114.658 -14895411.807 16180899.383 10 0 60992 47700.00000 0 -13656184.628 -16594252.152 13746011.658 10 0 60992 48600.00000 0 -14372070.757 -17947330.992 11044208.973 10 0 60992 49500.00000 0 -15024302.210 -18938593.145 8127857.439 10 0 60992 50400.00000 0 -15555109.389 -19565021.244 5053542.021 10 0 60992 51300.00000 0 -15909014.459 -19836564.496 1880971.504 10 0 60992 52200.00000 0 -16035344.598 -19775534.878 -1328182.094 10 0 60992 53100.00000 0 -15890560.690 -19415495.748 -4511486.905 10 0 60992 54000.00000 0 -15440301.468 -18799689.597 -7606973.317 10 0 60992 54900.00000 0 -14661054.845 -17979071.394 -10554350.141 10 0 60992 55800.00000 0 -13541383.796 -17010031.041 -13296189.918 10 0 60992 56700.00000 0 -12082652.979 -15951901.906 -15779059.089 10 0 60992 57600.00000 0 -10299223.588 -14864361.630 -17954569.834 10 0 60992 58500.00000 0 -8218106.565 -13804836.080 -19780332.035 10 0 60992 59400.00000 0 -5878087.484 -12826017.091 -21220786.082 10 0 60992 60300.00000 0 -3328358.836 -11973599.617 -22247899.812 10 0 60992 61200.00000 0 -626716.477 -11284334.365 -22841715.784 10 0 60992 62100.00000 0 2162604.672 -10784478.314 -22990738.344 10 0 60992 63000.00000 0 4971365.377 -10488708.322 -22692153.190 10 0 60992 63900.00000 0 7729925.709 -10399543.152 -21951875.624 10 0 60992 64800.00000 0 10369909.008 -10507297.543 -20784427.063 10 0 60992 65700.00000 0 12826815.338 -10790569.227 -19212642.830 10 0 60992 66600.00000 0 15042475.851 -11217237.223 -17267217.494 10 0 60992 67500.00000 0 16967246.377 -11745928.091 -14986097.236 10 0 60992 68400.00000 0 18561849.725 -12327887.074 -12413731.670 10 0 60992 69300.00000 0 19798791.015 -12909174.062 -9600200.283 10 0 60992 70200.00000 0 20663288.479 -13433090.743 -6600231.083 10 0 60992 71100.00000 0 21153682.643 -13842735.705 -3472131.073 10 0 60992 72000.00000 0 21281308.639 -14083579.101 -276649.901 10 0 60992 72900.00000 0 21069839.038 -14105947.925 2924200.873 10 0 60992 73800.00000 0 20554126.634 -13867316.948 6068349.679 10 0 60992 74700.00000 0 19778597.379 -13334308.851 9094864.610 10 0 60992 75600.00000 0 18795262.277 -12484319.474 11945127.777 10 0 60992 76500.00000 0 17661432.535 -11306700.018 14563962.054 10 0 60992 77400.00000 0 16437234.298 -9803446.619 16900689.062 10 0 60992 78300.00000 0 15183027.083 -7989368.251 18910098.879 10 0 60992 79200.00000 0 13956833.673 -5891725.496 20553313.847 10 0 60992 80100.00000 0 12811888.263 -3549354.456 21798530.901 10 0 60992 81000.00000 0 11794404.464 -1011311.188 22621629.248 10 0 60992 81900.00000 0 10941655.449 1664908.522 23006632.586 10 0 60992 82800.00000 0 10280445.566 4415501.818 22946017.606 10 0 60992 83700.00000 0 9826036.557 7172757.366 22440863.089 10 0 60992 84600.00000 0 9581572.895 9867622.403 21500836.593 10 0 60992 85500.00000 0 9538030.285 12432333.667 20144018.375 99